Wind_Speed
27 24 23 20 17 15 12 11 12 14 17 16 16 19 19 16 14 19 18 13 14 11 11 12 15 18 19 19 20 20 19 18 18 19 20 20 18 17 18 15 15 15 13
30 26 23 20 17 14 12 12 16 16 16 17 18 19 19 19 18 18 16 14 11 11 12 14 17 18 19 20 20 19 19 18 17 17 18 17 14 11 13 14 15 15 15
29 26 23 20 17 13 12 14 19 17 15 17 18 20 22 22 19 17 17 12 11 13 15 17 17 17 19 18 19 18 18 18 16 14 14 13 13 13 12 12 14 15 15
28 26 23 20 17 14 13 17 19 16 13 16 20 20 21 20 18 17 14 11 13 16 18 18 18 20 20 20 18 18 18 17 16 15 15 13 13 15 14 14 14 12 12
26 25 23 20 16 15 15 19 17 14 12 15 21 22 20 19 17 17 12 12 17 18 19 19 21 22 21 19 18 17 16 16 16 15 15 14 14 15 15 15 14 14 14
25 23 22 19 17 14 16 18 16 12 12 14 20 24 23 19 17 15 12 16 19 19 19 18 19 19 18 16 15 14 14 14 13 13 12 12 13 14 14 14 14 14 13
24 23 20 19 17 15 17 18 15 11 13 15 18 24 25 21 16 11 19 20 19 19 18 16 15 15 14 13 12 11 11 11 11 10 10 10 11 11 12 12 13 13 13
22 22 20 19 16 14 18 19 14 11 13 15 17 20 23 20 18 21 22 21 20 19 17 15 13 11 10 9 9 9 8 9 8 9 9 9 9 10 10 11 11 12 12
20 21 20 18 16 14 17 20 16 12 12 15 17 20 22 23 24 23 22 21 19 18 16 13 11 9 6 6 6 6 6 6 6 7 7 8 8 9 10 10 10 11 11
17 19 20 19 16 14 16 22 19 15 11 13 17 19 20 21 22 21 21 19 18 16 14 11 10 8 6 4 3 3 3 4 4 5 6 6 7 8 9 9 10 10 10
16 18 19 18 15 14 15 21 22 18 14 12 14 17 19 19 20 20 18 17 16 14 13 11 9 7 6 4 2 1 1 2 3 3 4 5 6 8 8 9 9 9 10
20 21 20 18 14 14 14 19 25 21 18 16 13 15 16 16 16 16 15 15 14 13 11 10 9 7 5 4 3 2 2 2 3 2 3 4 5 7 7 8 8 8 9
22 23 22 20 17 16 15 16 23 25 22 17 15 15 16 15 16 15 14 13 12 11 10 9 8 7 7 5 4 3 3 3 3 2 3 3 4 6 7 8 9 9 10
28 24 21 21 19 17 15 14 19 23 24 21 18 17 15 14 14 14 12 11 11 11 10 9 8 7 6 5 4 3 2 2 2 2 3 4 4 5 7 8 10 11 11
18 19 19 8 19 18 18 15 17 19 21 20 19 18 15 13 12 12 11 10 11 12 11 10 9 7 7 6 5 4 3 3 4 4 4 4 5 6 8 9 11 11 10
17 15 15 12 15 20 22 20 15 16 17 18 20 19 16 14 12 12 11 11 11 10 10 10 10 8 8 7 6 5 5 5 6 5 5 6 9 10 11 11 11 11 11
21 30 26 20 19 24 22 19 19 16 15 17 17 18 18 17 13 11 10 11 10 10 11 10 10 9 8 8 6 7 8 6 5 6 8 9 11 13 14 15 15 13 11
28 34 36 29 17 22 23 23 18 18 17 15 14 17 19 17 14 11 11 10 11 12 12 11 10 9 8 8 8 7 6 7 9 10 12 14 15 15 15 18 18 17 15
32 32 32 26 24 18 25 28 20 22 21 20 18 16 19 20 17 13 10 10 11 13 12 11 10 9 8 7 6 7 9 11 14 15 18 19 18 19 18 17 18 16 13
34 32 33 32 28 27 28 26 24 28 27 27 25 20 17 17 16 14 12 11 13 14 14 13 10 9 6 7 10 12 14 16 16 19 19 22 22 22 21 18 18 13 14
35 30 30 30 29 33 28 32 27 28 30 31 32 28 20 20 19 20 18 14 14 16 14 12 9 8 10 11 13 16 19 21 21 22 20 16 15 16 18 16 14 12 16
25 25 29 28 25 31 30 32 25 37 38 35 30 27 26 24 21 25 22 18 15 15 15 13 11 12 12 13 15 17 18 20 11 8 14 20 14 13 9 9 12 14 12
14 18 22 25 28 27 31 33 35 36 31 32 26 31 27 22 21 23 24 23 17 14 14 15 13 13 14 14 15 15 10 9 23 19 17 16 17 15 18 18 12 13 13
10 14 15 20 24 25 26 28 28 25 27 25 26 25 25 24 24 26 24 23 20 16 15 13 12 13 16 19 20 22 22 25 26 20 19 13 15 15 15 14 14 15 17
13 13 16 16 17 19 22 24 28 27 25 22 26 19 21 21 20 20 19 21 20 16 11 10 12 15 18 22 23 24 23 22 20 20 26 24 19 16 18 18 19 18 20
13 15 20 19 19 19 19 18 21 19 20 21 23 21 20 18 13 15 19 20 14 14 16 19 28 24 15 23 26 23 22 22 22 19 20 23 26 24 21 18 16 18 18
Wind_Direction
177 173 169 170 170 167 162 147 142 133 134 129 126 150 157 162 146 143 141 138 133 125 111 111 111 109 109 103 97 100 98 97 94 94 90 86 77 71 71 65 74 76 70
168 171 170 170 170 167 154 144 145 137 137 133 130 137 145 154 148 148 146 136 126 117 119 118 114 114 113 108 103 99 95 94 98 94 95 94 89 84 76 67 61 70 69
168 169 168 170 167 165 157 150 148 150 138 147 144 136 141 145 148 147 140 131 124 123 126 119 117 116 114 109 103 98 93 91 90 87 85 81 71 67 62 54 65 72 64
169 169 167 168 167 163 160 154 152 155 150 154 156 144 143 143 145 145 138 129 130 131 126 121 112 112 116 111 105 96 90 86 83 82 80 76 69 63 58 55 55 52 59
170 168 168 169 167 162 158 156 158 159 156 159 165 159 143 142 143 143 137 135 136 133 127 118 113 111 110 107 102 96 88 83 82 82 78 73 67 61 56 53 50 48 45
169 170 170 169 165 163 160 155 166 160 156 156 164 168 158 149 155 147 149 143 138 134 131 124 118 115 112 107 101 93 86 83 81 79 74 68 62 58 54 50 46 44 42
172 172 172 169 169 167 164 161 171 165 154 151 154 167 171 173 180 160 149 145 140 139 139 134 125 118 114 108 101 92 88 82 77 74 68 59 55 49 45 42 41 41 40
175 173 174 171 172 171 170 163 170 170 157 149 150 153 166 172 165 151 147 147 145 145 145 141 134 128 121 113 105 95 86 79 71 66 60 54 49 42 38 35 35 36 36
181 176 179 175 174 178 173 172 169 168 161 151 148 148 150 149 148 149 148 151 151 150 150 148 145 140 131 122 111 100 88 78 63 54 52 50 43 40 35 33 36 32 31
185 184 184 180 182 182 177 176 170 175 174 158 153 150 152 151 150 153 154 156 155 155 155 156 157 157 161 165 140 102 85 65 56 48 43 43 41 38 32 28 29 27 24
202 198 193 189 188 186 181 177 179 175 184 173 163 158 157 159 158 158 159 159 160 162 164 167 172 176 179 184 202 207 34 34 31 30 34 36 31 32 29 22 18 15 14
222 207 200 198 202 197 191 185 185 180 190 189 176 168 164 165 163 165 166 169 172 175 179 182 186 190 195 199 215 246 292 333 356 7 16 21 19 17 14 13 5 1 359
217 209 203 204 207 204 202 195 190 191 189 198 185 177 173 176 177 177 180 182 186 190 194 199 199 201 204 212 225 244 268 290 329 353 4 2 357 359 355 353 353 347 344
203 203 196 213 213 209 208 206 199 198 198 197 196 190 186 189 191 189 189 195 203 207 211 213 212 215 214 223 232 228 246 283 299 326 341 344 344 343 345 344 343 343 339
193 220 234 237 217 218 214 204 205 202 205 206 206 205 202 202 201 203 209 215 219 219 219 220 217 215 222 228 229 239 261 267 291 302 318 338 336 340 337 339 339 338 332
157 191 232 279 223 232 227 203 205 209 209 209 212 216 216 214 216 218 231 232 223 220 218 217 219 219 225 233 242 255 262 277 289 296 307 322 325 318 316 319 313 320 331
191 181 185 182 230 229 221 227 210 209 214 214 218 226 229 224 222 226 229 229 228 224 221 217 220 227 234 244 257 272 287 293 299 306 308 312 315 301 297 296 298 298 294
182 182 199 192 203 221 204 226 233 222 216 222 229 234 227 219 218 226 232 233 231 229 227 227 231 235 242 258 274 289 297 300 306 307 296 292 287 285 291 292 291 294 291
202 186 201 204 205 209 203 219 238 239 242 237 229 235 232 225 225 227 234 235 235 233 230 231 234 242 254 272 287 296 303 297 295 288 289 298 294 287 286 279 284 286 276
206 207 219 216 227 215 207 211 221 240 243 247 240 227 224 228 228 235 241 238 237 235 234 232 240 255 267 281 289 291 290 289 289 292 295 293 292 286 282 283 290 279 282
214 214 214 216 225 225 216 217 231 235 238 250 240 241 227 235 243 239 244 242 242 241 239 237 233 249 264 276 290 294 288 289 291 294 294 298 304 297 281 276 277 268 272
214 220 221 226 226 234 232 226 227 225 233 243 235 239 231 238 254 242 237 242 245 243 238 229 239 251 262 271 284 296 301 307 311 312 300 300 304 306 280 275 276 272 260
212 232 226 226 227 228 238 238 235 238 251 245 239 250 245 242 244 250 243 240 242 239 237 231 240 252 266 275 280 280 295 293 305 311 310 298 280 287 283 291 277 267 258
228 235 233 232 230 235 234 239 250 246 252 260 255 245 249 250 244 240 247 245 236 235 239 244 257 268 276 280 279 277 277 280 286 295 301 301 293 285 283 282 265 263 267
243 239 240 236 229 234 245 250 248 246 249 253 263 249 256 253 251 253 263 249 245 239 233 261 265 280 288 289 291 288 288 289 286 279 288 295 293 290 283 277 265 261 266
234 240 234 238 236 237 240 248 261 264 261 254 259 258 264 266 271 253 264 258 248 277 283 276 268 269 297 286 276 282 286 287 286 284 280 285 288 290 290 284 274 262 262
Height
1510 1515 1518 1521 1524 1525 1526 1528 1529 1530 1532 1533 1534 1536 1538 1540 1543 1544 1546 1547 1548 1549 1550 1550 1551 1552 1553 1554 1555 1556 1556 1556 1557 1558 1558 1558 1558 1558 1557 1557 1556 1555 1555
1509 1514 1518 1521 1524 1526 1527 1527 1529 1531 1532 1534 1536 1537 1539 1542 1544 1546 1547 1548 1549 1550 1551 1552 1553 1554 1555 1556 1557 1558 1558 1559 1559 1560 1559 1559 1560 1559 1559 1558 1557 1557 1556
1511 1514 1518 1521 1524 1526 1528 1528 1530 1532 1534 1535 1537 1539 1540 1543 1545 1546 1548 1549 1550 1551 1553 1553 1554 1556 1557 1558 1559 1560 1560 1561 1561 1562 1562 1561 1561 1560 1560 1560 1558 1559 1559
1513 1516 1519 1522 1524 1526 1528 1530 1531 1533 1535 1536 1538 1540 1542 1544 1546 1548 1549 1550 1551 1553 1554 1555 1556 1557 1559 1560 1561 1561 1562 1562 1563 1563 1563 1563 1562 1562 1561 1561 1560 1560 1559
1513 1517 1519 1522 1524 1526 1528 1531 1533 1534 1535 1537 1538 1541 1544 1545 1547 1549 1551 1552 1553 1554 1556 1557 1558 1560 1561 1562 1562 1563 1564 1564 1564 1565 1565 1565 1564 1564 1563 1563 1562 1561 1560
1515 1518 1520 1523 1525 1527 1529 1531 1534 1535 1536 1537 1538 1540 1544 1546 1548 1549 1552 1553 1555 1556 1558 1559 1560 1562 1563 1563 1564 1565 1565 1566 1566 1566 1566 1566 1566 1566 1565 1564 1564 1563 1562
1515 1518 1521 1523 1525 1527 1530 1532 1535 1536 1537 1538 1539 1540 1543 1546 1548 1550 1552 1554 1556 1558 1559 1561 1562 1563 1564 1565 1566 1566 1567 1567 1568 1568 1568 1568 1567 1567 1567 1566 1565 1565 1563
1517 1518 1522 1523 1525 1528 1531 1533 1535 1537 1538 1539 1540 1541 1543 1545 1548 1551 1553 1555 1557 1559 1560 1562 1563 1564 1565 1566 1567 1568 1568 1568 1569 1568 1568 1568 1568 1568 1567 1567 1566 1565 1564
1519 1519 1522 1523 1525 1528 1530 1533 1535 1537 1540 1540 1541 1543 1545 1546 1549 1552 1554 1556 1558 1560 1562 1563 1564 1565 1566 1567 1568 1569 1569 1569 1569 1569 1569 1569 1568 1568 1568 1567 1566 1566 1565
1519 1521 1523 1523 1525 1527 1530 1533 1536 1537 1540 1541 1543 1544 1547 1548 1550 1553 1555 1557 1559 1561 1562 1564 1565 1566 1567 1567 1568 1569 1569 1569 1569 1569 1569 1569 1569 1569 1568 1568 1567 1566 1566
1520 1522 1523 1523 1525 1527 1530 1532 1536 1538 1540 1542 1544 1545 1547 1549 1550 1553 1556 1558 1560 1562 1563 1564 1566 1566 1567 1568 1569 1569 1569 1569 1570 1570 1570 1569 1569 1568 1568 1568 1567 1567 1566
1521 1521 1522 1523 1525 1527 1529 1532 1535 1537 1540 1542 1544 1546 1548 1551 1552 1554 1556 1558 1560 1561 1563 1564 1565 1566 1567 1568 1568 1569 1569 1569 1569 1569 1570 1570 1569 1569 1568 1568 1567 1566 1566
1516 1520 1521 1523 1525 1527 1530 1532 1533 1537 1539 1542 1544 1547 1548 1551 1552 1553 1555 1557 1559 1561 1562 1564 1565 1566 1566 1567 1567 1568 1569 1569 1569 1569 1569 1569 1569 1569 1568 1567 1567 1566 1565
1515 1516 1517 1522 1525 1527 1530 1531 1533 1536 1539 1541 1544 1546 1547 1550 1552 1554 1555 1557 1558 1560 1561 1563 1564 1565 1566 1567 1567 1567 1568 1568 1568 1569 1569 1569 1568 1568 1568 1567 1566 1565 1564
1513 1512 1513 1515 1520 1525 1528 1530 1533 1535 1537 1540 1543 1546 1547 1549 1552 1553 1555 1556 1557 1558 1559 1561 1562 1564 1565 1565 1566 1567 1567 1567 1567 1567 1568 1568 1568 1568 1567 1567 1566 1565 1563
1507 1514 1518 1517 1519 1523 1526 1528 1531 1534 1536 1539 1541 1545 1547 1549 1551 1552 1553 1555 1556 1557 1558 1559 1561 1561 1563 1564 1565 1565 1565 1565 1565 1565 1566 1566 1566 1566 1566 1565 1564 1564 1563
1496 1503 1507 1514 1515 1521 1524 1528 1529 1533 1535 1536 1539 1543 1545 1547 1549 1550 1551 1553 1554 1555 1556 1558 1559 1560 1561 1562 1562 1563 1563 1563 1564 1564 1564 1564 1564 1563 1563 1563 1561 1561 1561
1491 1497 1504 1506 1512 1515 1520 1527 1529 1531 1532 1534 1536 1539 1542 1544 1546 1547 1548 1550 1552 1553 1554 1556 1557 1558 1559 1560 1561 1561 1562 1562 1562 1562 1562 1562 1561 1561 1560 1559 1558 1558 1558
1490 1497 1501 1506 1509 1513 1518 1521 1525 1529 1531 1532 1534 1536 1537 1540 1542 1544 1545 1547 1548 1550 1551 1553 1555 1556 1557 1558 1558 1559 1560 1559 1559 1559 1559 1558 1557 1556 1556 1555 1554 1554 1554
1490 1493 1498 1502 1510 1513 1515 1519 1523 1525 1526 1528 1531 1533 1535 1537 1539 1541 1542 1543 1544 1546 1549 1550 1552 1554 1555 1557 1557 1557 1557 1556 1555 1555 1554 1554 1553 1552 1551 1552 1551 1550 1552
1486 1492 1495 1500 1504 1510 1512 1514 1520 1519 1521 1523 1526 1528 1532 1534 1536 1537 1540 1541 1542 1544 1546 1547 1549 1551 1553 1554 1554 1554 1553 1553 1551 1550 1549 1549 1549 1547 1546 1547 1546 1547 1548
1484 1488 1492 1495 1500 1504 1507 1507 1511 1515 1518 1519 1523 1525 1526 1529 1531 1532 1535 1537 1539 1541 1544 1545 1546 1549 1550 1552 1552 1551 1548 1547 1546 1546 1545 1545 1544 1544 1544 1544 1543 1543 1544
1477 1483 1487 1491 1494 1498 1501 1505 1508 1512 1515 1516 1518 1517 1521 1524 1527 1528 1530 1532 1535 1537 1540 1542 1543 1545 1547 1548 1549 1551 1549 1545 1543 1541 1540 1541 1541 1541 1541 1541 1540 1540 1541
1480 1481 1484 1488 1492 1494 1498 1501 1498 1505 1508 1511 1513 1514 1514 1517 1520 1523 1526 1528 1531 1533 1536 1538 1540 1542 1543 1544 1545 1546 1546 1545 1544 1538 1537 1537 1538 1537 1536 1537 1538 1537 1537
1477 1481 1485 1487 1490 1492 1494 1498 1500 1502 1504 1506 1510 1510 1511 1514 1514 1518 1520 1524 1528 1529 1531 1534 1536 1539 1539 1540 1540 1540 1539 1539 1539 1537 1533 1532 1533 1533 1532 1531 1534 1534 1532
1476 1479 1483 1485 1487 1489 1493 1496 1497 1497 1500 1502 1505 1505 1506 1508 1509 1513 1517 1519 1519 1523 1527 1530 1533 1532 1532 1533 1534 1534 1533 1532 1531 1530 1530 1529 1528 1528 1526 1526 1527 1529 1529